User: anonymous   Login
Location: Igri�s
(42.2144°N, 0.4320°W)
Time: 18:38:05
(UTC+00:00)
Language:

Cosmos 1833 - Orbit

View from above orbital plane
View from above orbital plane
View from above satellite
View from above satellite

Ground track
Ground track

The orbit data is extracted from the following two-line orbital elements,

1 17589U 87027A   20298.43099628  .00000310  00000-0  19188-3 0  9990
2 17589  70.9148 129.9951 0019021 267.8927  92.0016 14.12892184733361
Epoch (UTC): 24 October 2020 10:20:38
Eccentricity: 0.0019021
inclination: 70.9148°
perigee height: 836 km
apogee height: 863 km
right ascension of ascending node: 129.9951°
argument of perigee: 267.8927°
revolutions per day: 14.12892184
mean anomaly at epoch: 92.0016°
orbit number at epoch: 73336

The dashed part of the orbit path shows where the satellite is in the earth's shadow,  

DLR